Effective Sunday, March 17, 2024, the National Weather Service National Data Buoy Center will discontinue its Dial-A-Buoy Interactive Voice Response system. For more information, see Service Change Notice 24-06 (PDF).

Station RPRN6 - Rochester Coast Guard, NY Image indicating link to RSS feed of recent meteorological observations for station RPRN6


Conditions at RPRN6 as of
(12:00 pm EST)
1700 GMT on 03/01/2024:
     

Click on the graph icon in the table below to see a time series plot of the last five days of that observation.

5-day plot - Wind Direction Wind Direction (WDIR):SSW ( 210 deg true )
5-day plot - Wind Speed Wind Speed (WSPD): 11.1 kts
5-day plot - Wind Gust Wind Gust (GST): 14.0 kts
5-day plot - Atmospheric Pressure Atmospheric Pressure (PRES):30.46 in
5-day plot - Pressure Tendency Pressure Tendency (PTDY):-0.04 in ( Falling )
5-day plot - Air Temperature Air Temperature (ATMP): 43.2 °F
5-day plot - Wind Chill Wind Chill (CHILL): 36.5 °F
5-day plot -  Wind Speed, Wind Gust and Atmospheric Pressure Combined plot of Wind Speed, Gust, and Air Pressure
Previous observations
TIME
(EST)
5-day plot - Wind Direction
WDIR
 
5-day plot - Wind Speed
WSPD
kts
5-day plot - Wind Gust
GST
kts
5-day plot - Wave Height
WVHT
ft
5-day plot - Dominant Wave Period
DPD
sec
5-day plot - Average Wave Period
APD
sec
5-day plot - Mean Wave Direction
MWD
 
5-day plot - Atmospheric Pressure
PRES
in
5-day plot - Pressure Tendency
PTDY
in
5-day plot - Air Temperature
ATMP
°F
5-day plot - Water Temperature
WTMP
°F
5-day plot - Dew Point
DEWP
°F
5-day plot - Salinity
SAL
psu
5-day plot - Visibility
VIS
nmi
5-day plot - Tide (above MLLW)
TIDE
ft
2024-03-01 11:50 am S 8.9 15.0----30.46- 42.4-----
2024-03-01 11:40 amSSW 8.0 14.0----30.47- 42.3-----
2024-03-01 11:30 am S 11.1 15.9----30.47- 41.7-----
2024-03-01 11:20 am S 9.9 12.0----30.48- 41.4-----
2024-03-01 11:10 am S 8.9 11.1----30.48- 41.0-----
2024-03-01 11:00 amSSW 6.0 14.0----30.48-0.01 40.8-----
2024-03-01 10:50 amSSW 9.9 12.0----30.49- 40.5-----
2024-03-01 10:40 amSSW 8.9 13.0----30.49- 40.1-----
2024-03-01 10:30 amSSW 11.1 14.0----30.49- 39.6-----
2024-03-01 10:20 amSSW 9.9 14.0----30.49- 39.2-----
2024-03-01 10:10 amSSW 9.9 13.0----30.49- 38.5-----
2024-03-01 10:00 amSSW 8.9 12.0----30.49+0.01 38.1-----
2024-03-01 09:50 am SW 8.0 9.9----30.49- 37.4-----
2024-03-01 09:40 amSSW 8.9 12.0----30.49- 36.7-----
2024-03-01 09:30 am SW 11.1 15.0----30.50- 36.1-----
2024-03-01 09:20 am SW 11.1 15.0----30.50- 35.6-----
2024-03-01 09:10 amSSW 9.9 15.9----30.50- 34.9-----
2024-03-01 09:00 amSSW 11.1 14.0----30.50+0.03 34.2-----
2024-03-01 08:50 amSSW 11.1 14.0----30.50- 33.4-----
2024-03-01 08:40 amSSW 9.9 14.0----30.49- 32.9-----
2024-03-01 08:30 amSSW 11.1 14.0----30.49- 32.0-----
2024-03-01 08:20 amSSW 11.1 14.0----30.49- 31.3-----
2024-03-01 08:10 amSSW 11.1 14.0----30.49- 30.7-----
2024-03-01 08:00 amSSW 11.1 15.9----30.49+0.02 30.2-----
2024-03-01 07:50 amSSW 12.0 15.9----30.49- 29.7-----
2024-03-01 07:40 am SW 9.9 13.0----30.48- 29.1-----
2024-03-01 07:30 amSSW 8.9 13.0----30.48- 28.8-----
2024-03-01 07:20 amSSW 11.1 15.0----30.48- 28.4-----
2024-03-01 07:10 amSSW 11.1 15.0----30.47- 28.0-----
2024-03-01 07:00 amSSW 9.9 13.0----30.48+0.01 28.0-----
2024-03-01 06:50 amSSW 9.9 12.0----30.48- 27.9-----
2024-03-01 06:40 amSSW 8.9 11.1----30.47- 27.9-----
2024-03-01 06:30 amSSW 8.9 12.0----30.47- 27.5-----
2024-03-01 06:20 amSSW 8.9 11.1----30.47- 27.3-----
2024-03-01 06:10 amSSW 8.0 9.9----30.47- 27.1-----
2024-03-01 06:00 amSSW 8.0 11.1----30.47+0.01 27.0-----
2024-03-01 05:50 amSSW 7.0 9.9----30.47- 26.6-----
2024-03-01 05:40 amSSW 7.0 8.9----30.47- 26.2-----
2024-03-01 05:30 amSSW 7.0 8.9----30.47- 25.9-----
2024-03-01 05:20 amSSW 7.0 8.9----30.46- 25.9-----
2024-03-01 05:10 amSSW 8.0 9.9----30.47- 25.7-----
2024-03-01 05:00 amSSW 7.0 8.9----30.47+0.00 25.7-----
2024-03-01 04:50 am S 6.0 8.0----30.46- 25.5-----
2024-03-01 04:40 am S 6.0 7.0----30.47- 25.3-----
2024-03-01 04:30 am S 5.1 8.0----30.46- 25.3-----
2024-03-01 04:20 amSSW 6.0 7.0----30.46- 25.3-----
2024-03-01 04:10 amSSW 5.1 7.0----30.47- 25.2-----
2024-03-01 04:00 am S 5.1 6.0----30.47-0.01 25.2-----
2024-03-01 03:50 am S 5.1 6.0----30.47- 25.2-----
2024-03-01 03:40 am S 4.1 6.0----30.47- 25.2-----
2024-03-01 03:30 am S 4.1 6.0----30.47- 25.2-----
2024-03-01 03:20 am S 4.1 6.0----30.47- 25.3-----
2024-03-01 03:10 am S 4.1 6.0----30.46- 25.3-----
2024-03-01 03:00 am S 5.1 6.0----30.46+0.00 25.3-----
2024-03-01 02:50 am S 5.1 6.0----30.47- 25.3-----
2024-03-01 02:40 am S 5.1 7.0----30.46- 25.3-----
2024-03-01 02:30 am S 6.0 8.0----30.46- 25.3-----
2024-03-01 02:20 am S 6.0 7.0----30.46- 25.3-----
2024-03-01 02:10 am S 5.1 7.0----30.46- 25.7-----
2024-03-01 02:00 am S 5.1 7.0----30.47+0.01 25.7-----
2024-03-01 01:50 am S 5.1 6.0----30.47- 25.9-----
2024-03-01 01:40 am S 5.1 7.0----30.47- 25.7-----
2024-03-01 01:30 am S 4.1 6.0----30.47- 25.7-----
2024-03-01 01:20 am S 2.9 4.1----30.48- 25.5-----
2024-03-01 01:10 am S 2.9 4.1----30.48- 25.5-----
2024-03-01 01:00 am S 4.1 4.1----30.48+0.03 25.5-----
2024-03-01 12:50 amSSW 4.1 5.1----30.47- 25.3-----
2024-03-01 12:40 amSSW 4.1 6.0----30.47- 25.0-----
2024-03-01 12:30 amSSW 5.1 6.0----30.48- 24.6-----
2024-03-01 12:20 amSSW 5.1 6.0----30.47- 24.4-----
2024-03-01 12:10 amSSW 4.1 6.0----30.47- 24.4-----
2024-03-01 12:00 amSSW 4.1 5.1----30.46-0.01 24.3-----
2024-02-29 11:50 pmSSW 4.1 5.1----30.46- 24.4-----
2024-02-29 11:40 pmSSW 4.1 6.0----30.46- 24.4-----
2024-02-29 11:30 pmSSW 5.1 7.0----30.46- 24.3-----
2024-02-29 11:20 pmSSW 5.1 8.0----30.46- 24.1-----
2024-02-29 11:10 pmSSW 7.0 8.0----30.46- 24.1-----
2024-02-29 11:00 pmSSW 6.0 8.0----30.46+0.01 24.1-----
2024-02-29 10:50 pmSSW 6.0 8.0----30.46- 24.4-----
2024-02-29 10:40 pm SW 6.0 7.0----30.47- 24.8-----
2024-02-29 10:30 pmWSW 5.1 7.0----30.46- 25.0-----
2024-02-29 10:20 pmWSW 5.1 7.0----30.46- 25.2-----
2024-02-29 10:10 pmWSW 5.1 7.0----30.45- 25.3-----
2024-02-29 10:00 pm SW 5.1 8.0----30.45+0.00 25.3-----
2024-02-29 09:50 pm SW 6.0 8.0----30.45- 25.3-----
2024-02-29 09:40 pm SW 5.1 7.0----30.46- 25.3-----
2024-02-29 09:30 pmWSW 5.1 7.0----30.47- 25.3-----
2024-02-29 09:20 pm W 5.1 8.0----30.47- 25.5-----
2024-02-29 09:10 pmWSW 6.0 8.9----30.47- 25.5-----
2024-02-29 09:00 pmWSW 7.0 11.1----30.47+0.05 25.7-----
2024-02-29 08:50 pm W 9.9 13.0----30.47- 25.9-----
2024-02-29 08:40 pm W 8.9 13.0----30.47- 26.1-----
2024-02-29 08:30 pm W 11.1 14.0----30.46- 26.1-----
2024-02-29 08:20 pm W 11.1 18.1----30.46- 26.4-----
2024-02-29 08:10 pm W 13.0 17.1----30.45- 26.4-----
2024-02-29 08:00 pm W 13.0 18.1----30.45+0.05 26.6-----
2024-02-29 07:50 pm W 11.1 19.0----30.45- 26.8-----
2024-02-29 07:40 pm W 14.0 20.0----30.45- 26.8-----
2024-02-29 07:30 pm W 12.0 18.1----30.45- 27.0-----
2024-02-29 07:20 pm W 14.0 20.0----30.45- 27.0-----
2024-02-29 07:10 pm W 12.0 18.1----30.45- 26.8-----
2024-02-29 07:00 pm W 9.9 17.1----30.45+0.06 26.8-----
2024-02-29 06:50 pm W 15.0 22.0----30.44- 26.8-----
2024-02-29 06:40 pm W 13.0 20.0----30.43- 27.0-----
2024-02-29 06:00 pm W 14.0 20.0----30.42+0.04 26.8-----
2024-02-29 05:50 pm W 15.0 22.0----30.42- 26.8-----
2024-02-29 05:40 pm W 15.9 21.0----30.42- 26.8-----
2024-02-29 05:30 pm W 14.0 18.1----30.41- 26.6-----
2024-02-29 05:20 pm W 15.0 25.1----30.41- 26.4-----
2024-02-29 05:10 pm W 14.0 22.9----30.40- 26.8-----
2024-02-29 05:00 pm W 11.1 22.0----30.40+0.02 26.8-----
2024-02-29 04:50 pm W 17.1 22.9----30.40- 26.4-----
2024-02-29 04:40 pm W 17.1 21.0----30.40- 26.1-----
2024-02-29 04:30 pm W 12.0 15.9----30.40- 25.3-----
2024-02-29 04:20 pmWNW 15.0 20.0----30.39- 25.0-----
2024-02-29 04:10 pmWNW 15.9 22.0----30.39- 24.6-----
2024-02-29 04:00 pm W 12.0 15.0----30.39+0.00 24.3-----
2024-02-29 03:50 pmWNW 14.0 18.1----30.39- 24.1-----
2024-02-29 03:40 pmWNW 13.0 18.1----30.39- 23.7-----
2024-02-29 03:30 pmWNW 9.9 17.1----30.39- 23.9-----
2024-02-29 03:20 pmWNW 13.0 19.0----30.39- 23.7-----
2024-02-29 03:10 pmWNW 13.0 19.0----30.38- 24.1-----
2024-02-29 03:00 pmWNW 14.0 20.0----30.38+0.00 23.5-----
2024-02-29 02:50 pm W 11.1 15.9----30.39- 23.2-----
2024-02-29 02:40 pmWNW 13.0 20.0----30.39- 23.0-----
2024-02-29 02:30 pmWNW 11.1 15.0----30.39- 23.0-----
2024-02-29 02:20 pm NW 14.0 17.1----30.39- 23.2-----
2024-02-29 02:10 pm NW 11.1 19.0----30.38- 22.8-----
2024-02-29 02:00 pmWNW 15.0 17.1----30.38+0.01 22.8-----
2024-02-29 01:50 pmWNW 9.9 15.9----30.38- 22.6-----
2024-02-29 01:40 pmWNW 14.0 17.1----30.38- 22.3-----
2024-02-29 01:30 pmWNW 11.1 17.1----30.38- 22.1-----
2024-02-29 01:20 pmWNW 14.0 17.1----30.39- 21.7-----
2024-02-29 01:10 pmWNW 13.0 17.1----30.39- 21.7-----
2024-02-29 01:00 pmWNW 12.0 15.0----30.39+0.06 21.4-----
2024-02-29 12:50 pmWNW 9.9 14.0----30.39- 21.4-----